Regional Weather Roundup
Issued by NWS

Home | Current Version | Previous Version | Graphics & Text | Print | Product List | Glossary On
Versions: 1 2 3 4 5 6 7 8 9 10 11 12 13 14 15 16 17 18 19 20 21 22 23 24 25 26 27
000
ASUS45 KBOU 291407
RWRCO

WEATHER ROUNDUP FOR COLORADO
NATIONAL WEATHER SERVICE DENVER/BOULDER CO
800 AM MDT WED MAR 29 2017

NOTE: "FAIR" INDICATES FEW OR NO CLOUDS BELOW 12000 FEET WITH NO
SIGNIFICANT WEATHER AND/OR OBSTRUCTIONS TO VISIBILITY.

COZ001>005-013-030-031-291500-
...NORTHWEST COLORADO...

CITY           SKY/WX    TMP DP  RH WIND       PRES   REMARKS
CRAIG          FAIR      30  26  85 SW8       30.19R WCI  22
HAYDEN         PTSUNNY   27  23  86 W3        30.19R
MEEKER         FAIR      29  28  96 CALM      30.19R
MOUNT WERNER   NOT AVBL
STEAMBOAT SPGS FAIR      29  27  93 CALM      30.17R
WALDEN         NOT AVBL
$$

COZ006>008-011-291500-
...WEST CENTRAL VALLEYS...

CITY           SKY/WX    TMP DP  RH WIND       PRES   REMARKS
GRAND JUNCTION FAIR      42  31  64 NW5       30.14R
MONTROSE       PTSUNNY   33  30  88 SE7       30.16R WCI  27
EAGLE          MOSUNNY   37  28  70 E5        30.15R
RIFLE          FAIR      38  31  76 E3        30.16R
DELTA          FAIR      38  33  80 CALM      30.12R
NUCLA          FAIR      37  28  70 SE7       30.15R
$$

COZ017>023-064>068-291500-
...SOUTHWEST COLORADO...

CITY           SKY/WX    TMP DP  RH WIND       PRES   REMARKS
DURANGO        FAIR      34  31  88 CALM      29.98R
CORTEZ         FAIR      42  29  59 CALM      30.05R
PAGOSA SPRINGS CLOUDY    34  32  93 SW3       30.02R
TELLURIDE      NOT AVBL
WOLF CREEK PAS CLOUDY    19  19 100 N14       30.11R WCI   6
$$

COZ009-010-012-014-032>034-037-058>063-291500-
...CENTRAL COLORADO...

CITY           SKY/WX    TMP DP  RH WIND       PRES   REMARKS
ASPEN          CLOUDY    34  29  82 CALM      30.12R
BUENA VISTA    CLOUDY    35  25  66 N8        30.07R WCI  29
COPPER MTN     CLOUDY    23  18  80 MISG      30.13R
BERTHOUD PASS  CLOUDY    14   3  62 N13G29    30.11S WCI   0
COTTONWOOD PAS CLOUDY    32  23  69 SW6       30.08S WCI  26
GUNNISON       FAIR      32  28  85 SW8       30.09R WCI  25
KREMMLING      CLOUDY    41  28  60 NW6       30.16R
LEADVILLE      PTSUNNY   25  19  78 N14       30.10R WCI  13
MONARCH PASS   CLOUDY    21  19  93 MISG      30.20R
SALIDA         CLOUDY    35  33  92 E3        30.14R
SUNLIGHT       CLOUDY   N/A N/A N/A N5        30.20S
WILKERSON PASS CLOUDY   N/A N/A N/A N12G21    30.11R FOG
$$

COZ069>075-291500-
...SAN LUIS VALLEY/SANGRE DE CRISTO MOUNTAINS...

CITY           SKY/WX    TMP DP  RH WIND       PRES   REMARKS
ALAMOSA        CLOUDY    35  29  78 N10       30.01R WCI  27
LA VETA PASS   NOT AVBL
SAGUACHE       CLOUDY    37  23  56 NW9       30.04R
$$

COZ035-036-038>040-291500-
...NORTHERN COLORADO FRONT RANGE...

CITY           SKY/WX    TMP DP  RH WIND       PRES   REMARKS
DENVER INTL AP LGT RAIN  37  34  89 N12       30.10S
DMNS CITY PARK   N/A     38  36  92 N6        30.12R
AURORA         LGT RAIN  35  35 100 N13       30.11R WCI  27
FRONT RANGE AP LGT RAIN  37  37 100 NW12      30.10S
ERIE MUNI ARPT CLOUDY    38  37  92 CALM      30.12R
BOULDER MUN AP CLOUDY    37  36  93 CALM      30.12R
CENTENNIAL     FLURRIES  35  35 100 N14G22    30.10R WCI  26
BROOMFIELD     NOT AVBL
FORT COLLINS   PTSUNNY   40  35  83 NE7       30.12R
LONGMONT       CLOUDY    41  37  87 CALM      30.14R
$$

COZ041-046-047-076>085-087-088-291500-
...PIKES PEAK/PALMER DIVIDE AND SOUTHERN FOOTHILLS...

CITY           SKY/WX    TMP DP  RH WIND       PRES   REMARKS
COLO. SPRINGS  CLOUDY    37  30  75 NW21G31   30.04S
A. F. ACADEMY  FLURRIES  34  32  93 N18G26    30.05R WCI  23
SCHRIEVER AFB  PTSUNNY   36  32  87 N15G23    30.04R
ELLICOTT       CLOUDY   N/A N/A N/A N25G32    30.01R
FALCON         PTSUNNY   33  31  92 N13G21    30.05R WCI  24
FORT CARSON    CLOUDY    39  29  67 N29G36    30.02S
LIMON          MIX PCPN  34  34 100 N16       30.05R FOG     WCI  24
MONUMENT HILL  LGT SNOW  30  30 100 N18G24    30.08S WCI  18
TRINIDAD       LGT SNOW  34  31  88 N12       30.04R FOG     WCI  25
$$

COZ042>045-048>051-090-091-291500-
...NORTHEAST COLORADO...

CITY           SKY/WX    TMP DP  RH WIND       PRES   REMARKS
GREELEY ARPT   CLOUDY    40  37  89 N5        30.12S
AKRON          CLOUDY    35  34  96 N17       30.07R FOG     WCI  25
BURLINGTON     LGT RAIN  39  38  96 N21       30.00R FOG
WRAY           NOT AVBL
STERLING       CLOUDY    37  37 100 N7        30.08S
HOLYOKE        CLOUDY    41  37  87 N14       30.08R
FORT MORGAN    CLOUDY    38  36  93 N8        30.10S
$$

COZ086-089-092>099-291500-
...SOUTHEAST COLORADO...

CITY           SKY/WX    TMP DP  RH WIND       PRES   REMARKS
PUEBLO         CLOUDY    41  36  82 SW5       30.05R
LA JUNTA       LGT RAIN  40  37  89 N13       30.03R
LAMAR          LGT RAIN  40  36  86 N16       29.97R
SPRINGFIELD      N/A     36  35  96 N26G36    29.92R
$$




USA.gov is the U.S. government's official web portal to all federal, state and local government web resources and services.